Colby, KS

2:52 AM CST on November 20, 2019 (GMT -0600)
Shaltz

Weather History for KCBK - October, 2019

Change the Weather History Date:

Sunday, October 20, 2019

  Actual Average (KGLD) Record (KGLD)
Temperature  
Mean Temperature 50 °F -  
Max Temperature 59 °F 65 °F 89 °F (1947)
Min Temperature 42 °F 35 °F 16 °F (1916)
Degree Days  
Heating Degree Days 14    
Moisture  
Dew Point 24 °F    
Average Humidity 39    
Maximum Humidity 61    
Minimum Humidity 15    
Precipitation  
Precipitation 0.00 in - - ()
Sea Level Pressure  
Sea Level Pressure 29.67 in    
Wind  
Wind Speed 19 mph (West)    
Max Wind Speed 40 mph    
Max Gust Speed 56 mph    
Visibility 10 miles    
Events      
Averages and records for this station are not official NWS values.
T = Trace of Precipitation, MM = Missing Value Source: NWS Daily Summary

Daily Weather History Graph

Daily Weather History Graph

Search for Another Location

Airport or City:

Astronomy

Oct. 20, 2019 Rise Set
Actual Time 7:59 AM CDT 6:58 PM CDT
Civil Twilight 7:31 AM CDT 7:25 PM CDT
Nautical Twilight 7:00 AM CDT 7:56 PM CDT
Astronomical Twilight 6:29 AM CDT 8:27 PM CDT
Moon No Moon Rise 2:27 PM CDT
Length of Visible Light 11h 53m
Length of Day
10h 59m
Waning Gibbous, 59% of the Moon is Illuminated
Oct 20
Waning Gibbous
Oct 21
Last Quarter
Oct 27
New
Nov 4
First Quarter
Nov 12
Full

Hourly Weather History & Observations

Time (CDT) Temp. Windchill Dew Point Humidity Pressure Visibility Wind Dir Wind Speed Gust Speed Precip Events Conditions
12:15 AM 48.2 °F - 23.0 °F 37% 29.71 in 10.0 mi SSE 13.8 mph - N/A   Clear
12:35 AM 50.0 °F - 23.0 °F 35% 29.71 in 10.0 mi SSE 16.1 mph - N/A   Clear
12:55 AM 48.2 °F - 24.8 °F 40% 29.70 in 10.0 mi SSE 16.1 mph - N/A   Clear
1:15 AM 46.4 °F 39.5 °F 26.6 °F 46% 29.69 in 10.0 mi SSE 17.3 mph 24.2 mph N/A   Clear
1:35 AM 46.4 °F 39.0 °F 26.6 °F 46% 29.68 in 10.0 mi SSE 19.6 mph 26.5 mph N/A   Clear
1:55 AM 46.4 °F 39.5 °F 28.4 °F 50% 29.67 in 10.0 mi SSE 17.3 mph 24.2 mph N/A   Clear
2:15 AM 48.2 °F - 28.4 °F 46% 29.66 in 10.0 mi SSE 19.6 mph 23.0 mph N/A   Clear
2:35 AM 50.0 °F - 28.4 °F 43% 29.64 in 10.0 mi SSE 20.7 mph 27.6 mph N/A   Clear
2:55 AM 50.0 °F - 28.4 °F 43% 29.63 in 10.0 mi SSE 21.9 mph 31.1 mph N/A   Clear
3:15 AM 50.0 °F - 28.4 °F 43% 29.63 in 10.0 mi SSE 20.7 mph 29.9 mph N/A   Clear
3:35 AM 50.0 °F - 30.2 °F 47% 29.61 in 10.0 mi SSE 24.2 mph 29.9 mph N/A   Clear
3:55 AM 50.0 °F - 30.2 °F 47% 29.60 in 10.0 mi SSE 25.3 mph 32.2 mph N/A   Clear
4:15 AM 48.2 °F - 30.2 °F 50% 29.59 in 10.0 mi SSE 23.0 mph 32.2 mph N/A   Clear
4:35 AM 48.2 °F - 30.2 °F 50% 29.58 in 10.0 mi SSE 21.9 mph 26.5 mph N/A   Clear
4:55 AM 48.2 °F - 30.2 °F 50% 29.58 in 10.0 mi SSE 18.4 mph 28.8 mph N/A   Clear
5:15 AM 48.2 °F - 32.0 °F 54% 29.58 in 10.0 mi South 18.4 mph 25.3 mph N/A   Clear
5:35 AM 48.2 °F - 32.0 °F 54% 29.57 in 10.0 mi SSE 17.3 mph 20.7 mph N/A   Clear
5:55 AM 50.0 °F - 32.0 °F 50% 29.57 in 10.0 mi South 20.7 mph 29.9 mph N/A   Clear
6:15 AM 50.0 °F - 32.0 °F 50% 29.57 in 10.0 mi South 21.9 mph 29.9 mph N/A   Clear
6:35 AM 50.0 °F - 32.0 °F 50% 29.57 in 10.0 mi South 19.6 mph 27.6 mph N/A   Clear
7:15 AM 50.0 °F - 32.0 °F 50% 29.64 in 10.0 mi West 18.4 mph 24.2 mph N/A   Clear
7:35 AM 46.4 °F 41.9 °F 32.0 °F 57% 29.64 in 10.0 mi SW 9.2 mph - N/A   Clear
7:55 AM 44.6 °F 40.2 °F 32.0 °F 61% 29.63 in 10.0 mi WSW 8.1 mph - N/A   Clear
8:15 AM 44.6 °F 43.1 °F 30.2 °F 57% 29.62 in 10.0 mi West 3.5 mph - N/A   Clear
8:35 AM 42.8 °F 40.1 °F 30.2 °F 61% 29.63 in 10.0 mi SW 4.6 mph - N/A   Clear
8:55 AM 42.8 °F 38.0 °F 30.2 °F 61% 29.66 in 10.0 mi West 8.1 mph - N/A   Clear
9:15 AM 44.6 °F 39.7 °F 28.4 °F 53% 29.66 in 10.0 mi WNW 9.2 mph - N/A   Clear
9:35 AM 46.4 °F 41.9 °F 28.4 °F 50% 29.66 in 10.0 mi NW 9.2 mph - N/A   Clear
9:55 AM 46.4 °F 41.5 °F 28.4 °F 50% 29.67 in 10.0 mi NW 10.4 mph - N/A   Clear
10:15 AM 46.4 °F 41.9 °F 28.4 °F 50% 29.68 in 10.0 mi NW 9.2 mph - N/A   Clear
10:35 AM 51.8 °F - 28.4 °F 41% 29.67 in 10.0 mi NNW 10.4 mph - N/A   Clear
10:55 AM 53.6 °F - 26.6 °F 35% 29.67 in 10.0 mi NW 17.3 mph 24.2 mph N/A   Clear
11:15 AM 55.4 °F - 21.2 °F 26% 29.66 in 10.0 mi NW 20.7 mph 29.9 mph N/A   Clear
11:35 AM 57.2 °F - 15.8 °F 20% 29.67 in 10.0 mi NW 20.7 mph 32.2 mph N/A   Clear
11:55 AM 57.2 °F - 15.8 °F 20% 29.66 in 10.0 mi NW 20.7 mph 28.8 mph N/A   Clear
12:35 PM 57.2 °F - 12.2 °F 17% 29.67 in 10.0 mi NW 19.6 mph 28.8 mph N/A   Clear
12:55 PM 57.2 °F - 10.4 °F 16% 29.68 in 10.0 mi NNW 17.3 mph 29.9 mph N/A   Clear
1:15 PM 55.4 °F - 12.2 °F 18% 29.68 in 10.0 mi NW 21.9 mph 28.8 mph N/A   Mostly Cloudy
1:35 PM 55.4 °F - 14.0 °F 20% 29.68 in 10.0 mi WNW 16.1 mph 31.1 mph N/A   Mostly Cloudy
1:55 PM 53.6 °F - 12.2 °F 19% 29.69 in 10.0 mi WNW 19.6 mph - N/A   Overcast
2:15 PM 53.6 °F - 15.8 °F 22% 29.69 in 10.0 mi West 21.9 mph 36.8 mph N/A   Overcast
2:55 PM 55.4 °F - 17.6 °F 23% 29.67 in 10.0 mi West 11.5 mph 16.1 mph N/A   Mostly Cloudy
3:15 PM 55.4 °F - 15.8 °F 21% 29.67 in 10.0 mi West 8.1 mph - N/A   Scattered Clouds
3:35 PM 55.4 °F - 14.0 °F 20% 29.65 in 10.0 mi WNW 9.2 mph - N/A   Clear
3:55 PM 55.4 °F - 12.2 °F 18% 29.65 in 10.0 mi West 12.7 mph 17.3 mph N/A   Clear
4:15 PM 55.4 °F - 10.4 °F 17% 29.65 in 10.0 mi West 10.4 mph 17.3 mph N/A   Clear
4:35 PM 55.4 °F - 12.2 °F 18% 29.65 in 10.0 mi WSW 9.2 mph - N/A   Clear
4:55 PM 59.0 °F - 10.4 °F 15% 29.65 in 10.0 mi West 13.8 mph 31.1 mph N/A   Scattered Clouds
5:15 PM 59.0 °F - 12.2 °F 16% 29.66 in 10.0 mi WNW 18.4 mph 24.2 mph N/A   Mostly Cloudy
5:35 PM 55.4 °F - 14.0 °F 20% 29.67 in 10.0 mi NW 16.1 mph 21.9 mph N/A   Overcast
5:55 PM 55.4 °F - 14.0 °F 20% 29.68 in 10.0 mi WNW 20.7 mph 28.8 mph N/A   Mostly Cloudy
6:15 PM 55.4 °F - 14.0 °F 20% 29.68 in 10.0 mi WNW 24.2 mph 31.1 mph N/A   Scattered Clouds
6:35 PM 51.8 °F - 19.4 °F 28% 29.70 in 5.0 mi WNW 29.9 mph 42.6 mph N/A   Mostly Cloudy
6:55 PM 50.0 °F - 21.2 °F 32% 29.71 in 7.0 mi West 28.8 mph 36.8 mph N/A   Overcast
7:15 PM 50.0 °F - 21.2 °F 32% 29.72 in 7.0 mi West 28.8 mph 35.7 mph N/A   Scattered Clouds
7:35 PM 50.0 °F - 23.0 °F 35% 29.72 in 10.0 mi WNW 27.6 mph 33.4 mph N/A   Clear
7:55 PM 48.2 °F - 24.8 °F 40% 29.74 in 10.0 mi West 26.5 mph 34.5 mph N/A   Clear
8:15 PM 48.2 °F - 26.6 °F 43% 29.75 in 10.0 mi West 29.9 mph 38.0 mph N/A   Clear
8:35 PM 46.4 °F 37.2 °F 26.6 °F 46% 29.75 in 10.0 mi WNW 29.9 mph 38.0 mph N/A   Mostly Cloudy
8:55 PM 44.6 °F 34.2 °F 26.6 °F 49% 29.75 in 7.0 mi WNW 33.4 mph 44.9 mph N/A   Overcast
9:15 PM 44.6 °F 34.9 °F 26.6 °F 49% 29.75 in 10.0 mi WNW 28.8 mph 43.7 mph N/A   Mostly Cloudy
9:35 PM 46.4 °F 36.7 °F 26.6 °F 46% 29.74 in 7.0 mi WNW 33.4 mph 51.8 mph N/A   Overcast
9:55 PM 46.4 °F 36.3 °F 26.6 °F 46% 29.73 in 7.0 mi WNW 36.8 mph 52.9 mph N/A   Overcast
10:15 PM 44.6 °F 33.5 °F 26.6 °F 49% 29.72 in 4.0 mi WNW 39.1 mph 56.4 mph N/A   Overcast
10:35 PM 44.6 °F 33.3 °F 28.4 °F 53% 29.72 in 7.0 mi WNW 40.3 mph 54.1 mph N/A   Overcast
10:55 PM 44.6 °F 34.2 °F 28.4 °F 53% 29.72 in 10.0 mi WNW 33.4 mph 46.0 mph N/A   Mostly Cloudy
11:15 PM 44.6 °F 34.2 °F 28.4 °F 53% 29.71 in 10.0 mi WNW 33.4 mph 51.8 mph N/A   Mostly Cloudy
11:35 PM 44.6 °F 33.6 °F 28.4 °F 53% 29.71 in 7.0 mi NW 38.0 mph 52.9 mph N/A   Scattered Clouds
11:55 PM 42.8 °F 32.1 °F 28.4 °F 57% 29.72 in 10.0 mi NW 31.1 mph 51.8 mph N/A   Scattered Clouds